Auburn, IN

12:05 PM EDT on August 21, 2017 (GMT -0400)
Auburn

Weather History for KGWB - October, 2013

Change the Weather History Date:

Monday, October 7, 2013

  Actual Average (KFWA) Record (KFWA)
Temperature  
Mean Temperature 51 °F -  
Max Temperature 60 °F 63 °F 89 °F (1963)
Min Temperature 42 °F 42 °F 26 °F (1964)
Degree Days  
Heating Degree Days 14    
Growing Degree Days 1 (Base 50)    
Moisture  
Dew Point 41 °F    
Average Humidity 73    
Maximum Humidity 93    
Minimum Humidity 51    
Precipitation  
Precipitation 0.00 in - - ()
Sea Level Pressure  
Sea Level Pressure 29.92 in    
Wind  
Wind Speed 6 mph (WSW)    
Max Wind Speed 16 mph    
Max Gust Speed 25 mph    
Averages and records for this station are not official NWS values.
T = Trace of Precipitation, MM = Missing Value Source: NWS Daily Summary

Daily Weather History Graph

Daily Weather History Graph

Search for Another Location

Airport or City:

Trip Planner

Search our weather history database for the weather conditions in past years. The results will help you decide how hot, cold, wet, or windy it might be!

Date:

Astronomy

Oct. 07, 2013 Rise Set
Actual Time 7:43 AM EDT 7:11 PM EDT
Civil Twilight 7:15 AM EDT 7:39 PM EDT
Nautical Twilight 6:43 AM EDT 8:11 PM EDT
Astronomical Twilight 6:11 AM EDT 8:43 PM EDT
Moon 10:34 AM EDT (10/7) 8:53 PM EDT (10/7)
Length of Visible Light 12h 23m
Length of Day
11h 28m
Waxing Crescent, 8% of the Moon is Illuminated
Oct 7
Waxing Crescent
Oct 11
First Quarter
Oct 18
Full
Oct 26
Last Quarter
Nov 3
New

Hourly Weather History & Observations

Time (EDT) Temp. Windchill Dew Point Humidity Pressure Visibility Wind Dir Wind Speed Gust Speed Precip Events Conditions
12:15 AM 50.0 °F - 39.2 °F 66% 29.79 in - WSW 5.8 mph - N/A   Overcast
12:35 AM 50.0 °F - 37.4 °F 62% 29.79 in - WSW 6.9 mph - N/A   Mostly Cloudy
12:55 AM 48.2 °F - 37.4 °F 66% 29.79 in - WSW 4.6 mph - N/A   Clear
1:15 AM 46.4 °F 44.3 °F 37.4 °F 71% 29.79 in - WSW 4.6 mph - N/A   Clear
1:35 AM 46.4 °F 44.3 °F 37.4 °F 71% 29.78 in - SW 4.6 mph - N/A   Clear
1:55 AM 44.6 °F 42.2 °F 37.4 °F 76% 29.79 in - SW 4.6 mph - N/A   Clear
2:15 AM 44.6 °F 43.1 °F 37.4 °F 76% 29.79 in - SW 3.5 mph - N/A   Clear
2:35 AM 44.6 °F 43.1 °F 37.4 °F 76% 29.79 in - SW 3.5 mph - N/A   Clear
2:55 AM 44.6 °F 43.1 °F 39.2 °F 81% 29.80 in - SSW 3.5 mph - N/A   Clear
3:15 AM 44.6 °F 42.2 °F 39.2 °F 81% 29.80 in - SW 4.6 mph - N/A   Clear
3:35 AM 42.8 °F 40.1 °F 39.2 °F 87% 29.79 in - SW 4.6 mph - N/A   Unknown
3:55 AM 42.8 °F 41.1 °F 39.2 °F 87% 29.78 in - SW 3.5 mph - N/A   Unknown
4:15 AM 42.8 °F 41.1 °F 37.4 °F 81% 29.78 in - SW 3.5 mph - N/A   Clear
4:35 AM 42.8 °F - 37.4 °F 81% 29.78 in - Calm Calm - N/A   Unknown
4:55 AM 42.8 °F 40.1 °F 39.2 °F 87% 29.79 in - SW 4.6 mph - N/A   Unknown
5:15 AM 42.8 °F 40.1 °F 39.2 °F 87% 29.80 in - SSW 4.6 mph - N/A   Unknown
5:35 AM 42.8 °F 40.1 °F 39.2 °F 87% 29.81 in - SW 4.6 mph - N/A   Unknown
5:55 AM 42.8 °F 41.1 °F 41.0 °F 93% 29.81 in - SSW 3.5 mph - N/A   Overcast
6:15 AM 44.6 °F 43.1 °F 41.0 °F 87% 29.81 in - SW 3.5 mph - N/A   Unknown
6:35 AM 44.6 °F 43.1 °F 41.0 °F 87% 29.81 in - SW 3.5 mph - N/A   Overcast
6:55 AM 44.6 °F 42.2 °F 41.0 °F 87% 29.81 in - WSW 4.6 mph - N/A   Unknown
7:15 AM 44.6 °F 40.7 °F 41.0 °F 87% 29.82 in - SW 6.9 mph - N/A   Overcast
7:35 AM 44.6 °F 40.7 °F 41.0 °F 87% 29.83 in - WSW 6.9 mph - N/A   Unknown
7:55 AM 44.6 °F 41.4 °F 41.0 °F 87% 29.83 in - WSW 5.8 mph - N/A   Unknown
8:15 AM 44.6 °F 40.7 °F 41.0 °F 87% 29.84 in - WSW 6.9 mph - N/A   Overcast
8:35 AM 44.6 °F 40.7 °F 41.0 °F 87% 29.84 in - WSW 6.9 mph - N/A   Unknown
8:55 AM 46.4 °F 44.3 °F 41.0 °F 81% 29.84 in - WSW 4.6 mph - N/A   Scattered Clouds
9:15 AM 46.4 °F 42.4 °F 41.0 °F 81% 29.85 in - SW 8.1 mph - N/A   Clear
9:35 AM 48.2 °F - 41.0 °F 76% 29.86 in - WSW 6.9 mph - N/A   Scattered Clouds
9:55 AM 48.2 °F - 39.2 °F 71% 29.87 in - WSW 10.4 mph - N/A   Scattered Clouds
10:15 AM 48.2 °F - 41.0 °F 76% 29.88 in - SW 8.1 mph 17.3 mph N/A   Scattered Clouds
10:35 AM 50.0 °F - 41.0 °F 71% 29.88 in - WSW 11.5 mph 18.4 mph N/A   Scattered Clouds
10:55 AM 50.0 °F - 41.0 °F 71% 29.89 in - WSW 9.2 mph - N/A   Scattered Clouds
11:15 AM 51.8 °F - 41.0 °F 67% 29.89 in - WSW 9.2 mph 17.3 mph N/A   Scattered Clouds
11:35 AM 53.6 °F - 41.0 °F 62% 29.90 in - WSW 12.7 mph 18.4 mph N/A   Scattered Clouds
11:55 AM 53.6 °F - 41.0 °F 62% 29.90 in - WSW 11.5 mph 17.3 mph N/A   Scattered Clouds
12:15 PM 55.4 °F - 41.0 °F 58% 29.91 in - SW 10.4 mph 19.6 mph N/A   Clear
12:35 PM 57.2 °F - 41.0 °F 55% 29.91 in - West 9.2 mph 18.4 mph N/A   Scattered Clouds
12:55 PM 57.2 °F - 41.0 °F 55% 29.92 in - West 16.1 mph 20.7 mph N/A   Scattered Clouds
1:15 PM 57.2 °F - 41.0 °F 55% 29.92 in - West 12.7 mph 23.0 mph N/A   Scattered Clouds
1:35 PM 55.4 °F - 41.0 °F 58% 29.93 in - West 15.0 mph 23.0 mph N/A   Mostly Cloudy
1:55 PM 59.0 °F - 42.8 °F 55% 29.93 in - West 16.1 mph 25.3 mph N/A   Overcast
2:15 PM 55.4 °F - 42.8 °F 63% 29.93 in - West 11.5 mph 25.3 mph N/A   Overcast
2:35 PM 55.4 °F - 42.8 °F 63% 29.95 in - West 13.8 mph 20.7 mph N/A   Overcast
2:55 PM 55.4 °F - 44.6 °F 67% 29.95 in - West 15.0 mph 21.9 mph N/A   Overcast
3:15 PM 55.4 °F - 44.6 °F 67% 29.96 in - West 13.8 mph 19.6 mph N/A   Overcast
3:35 PM 57.2 °F - 44.6 °F 63% 29.96 in - West 12.7 mph 21.9 mph N/A   Mostly Cloudy
3:55 PM 59.0 °F - 44.6 °F 59% 29.97 in - West 13.8 mph 21.9 mph N/A   Scattered Clouds
4:15 PM 59.0 °F - 44.6 °F 59% 29.98 in - West 11.5 mph 18.4 mph N/A   Scattered Clouds
4:35 PM 59.0 °F - 44.6 °F 59% 29.98 in - West 12.7 mph 20.7 mph N/A   Scattered Clouds
4:55 PM 59.0 °F - 42.8 °F 55% 29.98 in - West 13.8 mph 18.4 mph N/A   Scattered Clouds
5:15 PM 60.8 °F - 42.8 °F 52% 29.99 in - West 11.5 mph 17.3 mph N/A   Scattered Clouds
5:35 PM 59.0 °F - 42.8 °F 55% 29.99 in - West 8.1 mph 16.1 mph N/A   Mostly Cloudy
5:55 PM 59.0 °F - 42.8 °F 55% 30.00 in - West 13.8 mph 17.3 mph N/A   Scattered Clouds
6:15 PM 59.0 °F - 42.8 °F 55% 30.01 in - WNW 8.1 mph - N/A   Clear
6:35 PM 59.0 °F - 41.0 °F 51% 30.02 in - WNW 10.4 mph - N/A   Clear
6:55 PM 57.2 °F - 41.0 °F 55% 30.02 in - West 6.9 mph - N/A   Clear
7:15 PM 55.4 °F - 41.0 °F 58% 30.04 in - West 5.8 mph - N/A   Clear
7:35 PM 53.6 °F - 41.0 °F 62% 30.05 in - Calm Calm - N/A   Clear
7:55 PM 53.6 °F - 42.8 °F 67% 30.06 in - Calm Calm - N/A   Clear
8:15 PM 51.8 °F - 41.0 °F 67% 30.07 in - Calm Calm - N/A   Clear
8:35 PM 50.0 °F - 42.8 °F 76% 30.07 in - Calm Calm - N/A   Clear
8:55 PM 50.0 °F - 42.8 °F 76% 30.08 in - Calm Calm - N/A   Clear
9:15 PM 46.4 °F - 42.8 °F 87% 30.09 in - Calm Calm - N/A   Clear
9:35 PM 46.4 °F - 42.8 °F 87% 30.10 in - Calm Calm - N/A   Clear
9:55 PM 44.6 °F - 41.0 °F 87% 30.11 in - Calm Calm - N/A   Unknown
10:15 PM 46.4 °F - 42.8 °F 87% 30.11 in - Calm Calm - N/A   Unknown
10:35 PM 42.8 °F - 41.0 °F 93% 30.12 in - Calm Calm - N/A   Unknown
10:55 PM 42.8 °F - 41.0 °F 93% 30.12 in - Calm Calm - N/A   Unknown
11:15 PM 44.6 °F - 41.0 °F 87% 30.13 in - Calm Calm - N/A   Unknown
11:35 PM 44.6 °F - 42.8 °F 93% 30.14 in - Calm Calm - N/A   Unknown
11:55 PM 42.8 °F - 41.0 °F 93% 30.15 in - Calm Calm - N/A   Unknown